吉林一号10星 (JILIN-1 10)

导读 | 豆包AI

JILIN-01-10是中国于2019年1月21日发射的吉林一号系列卫星,归属吉林一号商业遥感卫星星座。该卫星延续星座高分辨率观测优势,具备对地遥感成像能力,可服务于国土资源监测、农业估产、城市规划、灾害应急等多个领域,进一步扩充了中国商业遥感卫星的观测覆盖能力与数据获取效率。

基本信息
目录编号:
43946
目录名称:
JILIN-01-10
国际标识:
2019-005E
轨道中心:
EARTH
卫星名称:
吉林一号10星
卫星全名:
吉林一号10星 (JILIN-1 10)
卫星状态:
在轨 (已飞行2608 天)
发射日期:
2019-01-21 UTC
国别 :
中国 (CN)
星等 :
--
轨道信息
数据来源 国际轨道数据
星历时间: 2026-03-13T22:24:08+0800
9小时前
查看轨道信息
半长轴: 6870.359km
偏心率: 0.0007047
轨道倾角: 97.473°
近地点辐角 249.686°
升交点赤经 171.523°
平近点角 110.362°
近地点: 487.38km
远地点: 497.064km
周期: 94.456分钟
每日圈数: 15.245219
详细信息
平衡模式:
三轴稳定
覆盖范围:
全球
运营商:
长光卫星技术股份有限公司
运营商所在国:
中国
制造商(研发单位):
长光卫星技术股份有限公司
制造商所在国:
中国
使用方式:
暂无
卫星简介
“吉林一号”卫星星座(JiLin-1)是长光卫星技术有限公司在建的核心工程,是我国目前最大的商业遥感卫星星座,具备了较强的服务能力。该卫星仍在工作。
2D轨道图
3D轨道图
轨道高度分析图
轨道倾角分析图
轨道综合分析图
查看轨道综合分析图